This is the latest recevied weather packets stored in our database for station/object W1HS. If no packets are shown the sender has not sent any weather packets the latest 10 day(s).
| Time | Temp. | Humidity | Pressure | Rain* | Wind** | Luminosity | Snow |
|---|---|---|---|---|---|---|---|
| 1777766298 | 8.89° C | 84% | 990.5 hPa | 0 mm | - | 0 W/m² | - |
| 1777765698 | 9.44° C | 81% | 990.2 hPa | 0 mm | - | 0 W/m² | - |
| 1777765098 | 10° C | 79% | 990.2 hPa | 0 mm | - | 11 W/m² | - |
| 1777764498 | 10° C | 82% | 990.2 hPa | 0 mm | - | 18 W/m² | - |
| 1777763898 | 9.44° C | 83% | 990 hPa | 0 mm | - | 42 W/m² | - |
| 1777763300 | 9.44° C | 82% | 990 hPa | 0 mm | - | 26 W/m² | - |
| 1777762698 | 9.44° C | 81% | 990 hPa | 0 mm | - | 26 W/m² | - |
| 1777762098 | 9.44° C | 80% | 989.9 hPa | 0 mm | - | 30 W/m² | - |
| 1777761498 | 10° C | 79% | 989.8 hPa | 0 mm | - | 32 W/m² | - |
| 1777760898 | 10° C | 75% | 989.8 hPa | 0 mm | - | 33 W/m² | - |
| 1777760299 | 10° C | 72% | 989.8 hPa | 0 mm | - | 29 W/m² | - |
| 1777759698 | 10° C | 65% | 989.7 hPa | 0 mm | - | 44 W/m² | - |
| 1777759098 | 10° C | 62% | 989.6 hPa | 0 mm | - | 69 W/m² | - |
| 1777758498 | 10° C | 66% | 989.5 hPa | 0 mm | - | 148 W/m² | - |
| 1777757898 | 9.44° C | 66% | 989.5 hPa | 0 mm | - | 114 W/m² | - |
| 1777757299 | 9.44° C | 68% | 989.6 hPa | 0 mm | - | 54 W/m² | - |
| 1777756698 | 9.44° C | 75% | 989.6 hPa | 0 mm | - | 46 W/m² | - |
| 1777756100 | 9.44° C | 78% | 989.5 hPa | 0 mm | - | 92 W/m² | - |
| 1777755500 | 9.44° C | 83% | 989.6 hPa | 0 mm | - | 100 W/m² | - |
| 1777754900 | 9.44° C | 81% | 989.6 hPa | 0 mm | - | 86 W/m² | - |
| 1777754300 | 9.44° C | 84% | 989.5 hPa | 0 mm | - | 123 W/m² | - |
| 1777753700 | 9.44° C | 83% | 989.6 hPa | 0 mm | - | 86 W/m² | - |
| 1777753100 | 9.44° C | 85% | 989.6 hPa | 0 mm | - | 102 W/m² | - |
| 1777752500 | 9.44° C | 85% | 989.6 hPa | 0 mm | - | 132 W/m² | - |
| 1777751900 | 9.44° C | 84% | 989.7 hPa | 0 mm | - | 124 W/m² | - |
* Rain latest hour (hover to see other rain measurements)
** Current wind speed in m/s (hover to see current wind gust speed)